Location: Home
(42.5358°N, 72.7383°W)
Time: 07:12:21
(UTC-05:00)

Explorer 11/Cluster Stage 4 - Pass Details

Date: 04 December 2021
Orbit: 467 x 1255 km, 28.8° (Epoch: 25 January)

Event Time Altitude Azimuth Distance (km) Brightness Sun altitude
Rises 01:39:03 0° 222° (SW) 3,401 - -58.2°
Reaches altitude 10° 01:42:08 10° 206° (SSW) 2,614 - -57.7°
Maximum altitude 01:46:36 20° 161° (SSE) 2,177 - -57.0°
Drops below altitude 10° 01:51:37 10° 119° (ESE) 2,994 - -56.2°
Exits shadow 01:53:55 - 108° (ESE) 3,618 10.3 -55.8°
Sets 01:55:27 0° 104° (ESE) 4,065 10.6 -55.5°
